Temp
7 7 7 7 7 7 7 7 7 7 7 7 7 7 7 7 7 7 7 7 8 7 7 7 7 8 7 7 8 9 8 10 11 11 12 15 16 15 16 17 16 17 17 17 17 17 18 18 19 20 20 20 20 21 22 23 23 24 24 23 22 22 23 25 26 26 27 28 28 29 29 29 29 30 32 32 32 33 32 30 30 30 29 28 28 27 25 26
7 7 7 7 7 7 7 7 7 7 7 7 7 7 7 7 7 7 7 7 7 7 7 7 7 7 7 8 8 9 9 9 9 9 13 16 15 15 16 16 16 16 16 16 16 15 16 17 17 18 19 20 20 21 22 23 23 23 24 23 22 23 25 26 27 27 28 28 28 29 29 29 29 30 31 32 31 32 31 29 29 28 27 27 26 26 25 25
7 7 7 7 7 7 7 7 7 7 7 7 7 7 7 7 7 7 7 7 7 7 7 7 7 7 7 8 9 9 8 9 11 13 15 16 15 15 16 16 16 16 16 16 16 15 15 16 16 17 18 19 20 21 21 23 23 23 23 23 23 25 25 27 27 28 28 28 29 29 29 29 29 30 31 31 31 32 30 28 28 27 26 26 25 25 25 25
6 6 6 7 7 7 7 7 7 7 7 7 7 7 7 7 7 7 7 7 7 7 7 7 7 7 7 8 10 9 8 10 14 16 16 16 15 16 16 16 17 16 16 16 16 16 16 16 16 17 18 19 20 21 21 22 23 23 23 23 24 25 25 26 27 28 28 28 28 28 29 29 29 30 31 31 31 31 31 29 29 28 26 26 25 25 25 24
6 6 6 6 7 7 7 7 7 7 6 7 7 7 7 7 7 7 7 7 7 7 7 7 7 7 7 9 10 9 9 13 16 16 16 16 16 16 16 17 17 16 16 16 17 17 16 16 17 18 18 18 19 20 20 22 23 23 23 23 24 25 25 26 27 28 28 28 28 28 28 29 29 29 30 31 30 31 32 31 30 28 26 26 26 25 24 24
6 6 6 6 6 6 6 6 6 6 6 6 7 7 7 7 7 7 6 7 7 7 7 7 7 7 7 9 11 9 11 16 16 15 16 16 16 16 16 16 16 16 16 16 16 16 17 17 17 18 18 18 19 19 20 22 23 22 23 24 24 25 25 26 27 27 28 28 28 28 28 29 29 29 30 30 30 31 32 32 30 28 27 26 26 25 24 24
6 6 6 6 6 6 6 6 6 6 6 6 6 6 6 6 7 7 6 7 7 7 7 7 7 7 7 9 11 10 11 14 15 15 16 16 16 16 16 16 16 16 16 16 16 16 17 17 17 18 18 18 19 19 20 21 22 22 22 23 24 24 25 26 27 27 28 28 28 28 28 29 28 28 29 30 31 31 32 32 30 28 28 27 26 25 24 24
6 6 6 6 6 6 6 6 6 6 6 6 6 6 6 6 6 6 7 7 7 7 6 7 7 6 7 8 10 11 11 14 16 16 16 16 16 16 16 16 16 16 16 16 16 16 17 17 17 18 18 18 19 19 20 20 21 21 22 23 24 24 25 25 26 26 27 27 27 28 28 28 29 29 29 29 30 31 31 32 30 28 28 26 25 25 24 24
6 6 6 6 6 6 6 6 6 6 6 6 6 6 6 6 6 6 6 6 7 7 7 7 7 6 7 7 8 11 14 16 16 16 16 16 15 16 16 16 16 16 16 16 16 16 16 17 17 17 17 17 18 19 20 20 20 21 21 22 23 24 25 25 26 26 26 27 27 27 27 28 29 29 28 29 30 30 31 31 30 28 27 26 25 24 24 23
5 6 6 6 6 6 6 6 6 6 6 6 6 6 6 6 6 6 6 7 6 6 7 7 7 7 7 7 8 12 15 16 16 15 15 14 15 15 16 16 16 16 16 16 16 16 16 16 16 17 17 17 18 18 19 19 19 21 21 21 22 23 24 25 25 26 26 27 27 27 27 27 28 28 28 29 30 30 30 30 30 29 26 26 25 24 24 24
5 6 6 6 6 6 6 6 6 6 6 6 6 6 6 6 6 6 6 6 6 7 7 6 7 6 7 7 7 12 16 16 16 15 14 14 14 15 15 15 15 16 16 15 16 16 16 16 16 16 17 17 17 18 19 19 19 20 20 20 21 21 22 24 25 25 26 26 27 27 27 27 28 27 27 29 30 30 30 29 29 28 27 26 25 24 24 24
5 5 6 5 5 6 6 6 6 6 6 6 6 6 6 6 6 6 6 6 6 6 6 6 6 6 7 6 6 11 16 16 15 15 14 14 14 15 15 15 15 15 15 15 15 16 16 16 16 15 16 16 16 17 19 19 19 19 19 19 20 21 21 22 24 25 25 26 27 27 25 26 27 27 28 29 29 29 29 29 28 28 27 26 25 25 24 24
5 5 5 5 5 5 5 6 6 6 6 6 6 6 6 6 6 6 6 6 6 6 6 6 6 6 6 6 8 13 15 14 14 14 14 14 14 15 15 15 16 16 16 15 15 16 16 16 16 15 16 16 15 17 18 18 19 19 19 19 19 20 20 22 23 24 25 25 27 27 23 24 27 28 28 29 29 29 29 29 28 27 27 26 26 25 25 24
5 5 5 5 5 5 5 6 6 6 6 6 6 6 6 6 5 6 6 6 6 6 6 6 6 7 6 6 10 14 13 12 12 13 14 14 14 15 15 15 15 16 16 16 16 16 16 16 16 15 16 16 16 17 17 18 18 18 19 19 19 19 20 22 23 23 24 25 27 26 22 23 27 28 29 29 29 29 29 29 28 27 27 26 26 26 25 25
5 5 5 5 5 5 5 5 6 6 6 6 6 5 6 6 6 6 6 6 6 7 6 6 6 6 6 6 10 13 13 12 12 14 15 14 14 15 15 16 16 16 16 16 16 16 16 16 16 15 16 16 16 16 16 17 17 18 18 18 18 18 19 22 23 23 24 25 27 25 22 24 26 27 29 29 29 29 28 29 28 28 27 27 26 25 25 25
5 5 5 5 5 5 5 5 5 5 5 5 5 6 6 7 7 7 7 7 7 7 6 6 6 6 6 8 11 13 13 12 13 16 15 14 14 14 15 16 16 16 16 16 16 16 16 16 16 15 16 16 16 15 15 16 16 17 17 17 18 18 19 21 23 24 24 25 26 25 23 24 26 27 28 29 29 29 29 28 29 28 28 27 26 25 25 24
5 5 5 5 5 5 5 5 5 5 5 5 6 7 9 9 8 8 8 8 7 7 7 7 7 6 7 10 12 13 14 14 15 16 15 15 15 15 15 15 15 16 16 16 16 16 16 16 16 15 15 15 15 15 15 14 15 16 16 16 17 18 19 20 22 24 24 24 25 25 24 25 26 27 28 29 29 29 29 28 29 29 28 27 26 25 25 24
5 5 5 5 5 5 5 5 5 5 5 6 7 9 10 11 10 9 8 8 8 7 7 8 7 7 10 11 12 14 15 15 16 16 15 15 15 15 15 15 15 15 15 15 15 15 15 15 15 15 14 14 15 14 14 14 15 15 16 16 17 18 18 19 20 23 24 24 24 24 24 25 26 27 27 28 28 28 29 29 29 29 28 28 26 24 24 24
5 5 5 5 5 5 5 5 5 5 5 7 8 10 11 11 10 10 9 8 8 8 9 8 7 10 12 12 13 14 15 15 16 16 16 15 15 15 15 15 15 15 14 14 14 15 15 14 14 13 13 13 14 14 14 15 16 16 16 16 17 18 18 19 20 23 24 24 23 24 24 25 26 26 27 28 27 27 28 29 28 28 28 28 27 24 23 24
5 5 5 5 5 5 5 5 5 6 6 7 8 10 11 10 10 10 9 9 9 10 11 10 9 10 12 12 13 14 14 15 15 16 16 16 15 15 15 15 14 14 13 13 13 15 15 13 13 12 13 13 13 14 14 15 15 16 16 16 17 17 18 20 21 23 24 23 23 24 24 24 25 26 27 27 27 27 27 28 28 28 28 28 27 26 24 23
5 5 5 5 5 5 5 5 6 7 7 7 7 8 9 9 9 9 9 9 10 10 11 11 10 10 11 12 13 14 14 14 15 15 16 16 16 14 14 14 13 13 13 13 13 14 14 12 12 13 13 13 14 14 14 14 15 15 15 15 16 17 18 19 21 22 24 23 23 24 24 24 25 25 26 27 27 27 27 27 27 27 28 27 28 27 25 23
5 5 5 5 5 5 5 6 7 8 8 8 7 7 8 9 10 10 10 9 9 10 10 10 11 11 12 12 13 13 13 13 14 15 16 16 15 14 14 13 13 12 13 13 13 12 12 11 12 13 13 14 14 14 14 14 14 15 15 15 15 16 17 19 20 21 23 22 22 23 23 24 25 25 26 26 26 27 27 27 27 27 27 27 27 28 27 24
5 5 5 5 5 5 5 7 8 8 8 8 7 7 9 10 10 10 10 9 9 10 10 10 10 10 11 12 13 13 12 13 13 14 16 15 14 14 14 13 13 12 12 13 12 11 11 11 13 13 14 14 14 14 14 14 14 14 14 14 14 16 16 17 19 20 22 22 23 24 23 23 25 25 25 26 26 27 27 27 27 26 27 27 27 28 27 25
5 5 5 5 5 5 6 7 8 8 8 8 8 9 10 10 10 10 10 9 8 9 10 11 11 11 11 12 13 13 12 13 13 14 16 15 14 14 14 13 13 12 12 13 12 11 11 12 14 14 14 14 13 14 14 13 13 14 14 14 14 16 16 17 18 20 21 21 23 23 22 22 24 24 25 26 26 27 27 28 27 26 26 27 27 27 27 25
5 5 5 5 5 5 7 8 8 8 8 9 10 10 10 10 10 10 9 8 8 9 11 12 12 12 13 14 14 14 13 13 14 15 17 16 14 14 14 14 13 12 12 12 12 11 12 13 14 14 14 14 13 13 14 13 13 13 14 15 15 16 16 17 18 19 18 19 22 23 20 20 23 23 24 25 25 26 27 27 27 27 26 26 26 26 25 25
5 5 5 5 4 5 7 8 8 8 8 9 10 10 10 10 10 10 9 7 9 12 13 13 13 13 14 14 15 15 13 13 15 16 17 16 16 15 14 14 14 13 12 13 12 12 13 14 14 14 13 14 13 13 14 14 13 13 14 15 16 16 16 17 17 18 17 17 21 22 20 20 22 22 24 25 25 25 26 26 27 27 27 26 26 26 24 24
5 5 5 5 5 5 6 8 8 7 8 9 10 10 10 10 10 10 9 8 10 14 14 13 14 14 14 15 15 15 13 13 15 16 16 16 16 16 14 13 14 13 14 14 12 13 14 14 14 14 13 13 13 13 14 15 13 13 15 16 16 16 16 16 17 17 17 18 20 21 21 20 21 22 24 25 25 25 25 25 26 27 27 27 27 26 24 24
5 5 5 5 6 5 5 7 6 6 9 10 10 10 10 10 10 9 9 10 11 14 13 13 14 14 14 15 15 14 14 14 14 14 15 15 15 15 14 13 13 13 15 14 11 13 14 13 13 13 13 13 13 13 14 15 14 14 16 16 16 16 16 17 17 17 17 18 18 19 20 20 20 22 24 24 24 24 25 25 25 26 27 27 27 26 24 24
5 5 5 6 7 7 6 6 6 7 10 10 10 10 10 10 9 8 9 10 12 13 13 13 14 14 14 14 14 14 14 14 13 14 15 14 14 14 13 12 13 12 14 14 12 13 14 14 14 14 13 13 13 14 15 14 14 15 16 16 16 16 16 17 17 17 17 16 16 18 20 19 20 22 23 23 23 24 25 25 26 25 26 27 27 26 24 23
6 6 7 7 7 7 7 7 8 9 10 10 9 10 10 9 9 9 10 11 12 12 13 13 13 13 13 12 12 12 13 13 14 14 14 13 13 13 11 10 11 12 12 13 12 13 14 14 14 14 13 14 14 14 15 14 14 15 15 15 15 15 16 16 16 17 17 15 16 18 19 19 19 21 22 23 23 25 25 26 26 26 26 26 27 26 24 23
7 8 7 7 7 7 7 7 9 10 10 10 9 9 9 8 9 10 11 11 12 12 12 13 12 12 12 11 10 11 12 12 13 13 12 12 11 10 9 9 10 10 10 11 11 12 13 13 13 14 14 15 14 14 14 15 15 14 14 14 14 14 15 15 15 16 15 15 17 19 19 19 18 20 23 24 25 25 26 26 26 26 26 27 26 25 23 23
8 9 9 8 8 8 8 9 10 10 9 10 10 9 9 9 9 9 11 12 11 11 12 12 12 11 11 10 10 11 11 11 12 12 11 11 11 10 10 9 10 9 9 9 10 11 12 12 13 14 14 15 14 13 13 14 14 13 13 13 12 13 13 13 14 15 15 16 18 19 19 19 19 20 23 24 25 26 26 26 27 27 27 27 25 23 23 23
9 9 9 9 9 9 10 10 10 9 9 10 10 9 9 9 10 10 11 11 11 11 12 11 11 10 10 10 10 11 11 11 11 12 11 11 10 10 10 10 10 9 9 9 9 10 10 11 13 13 13 14 14 12 12 12 13 13 12 12 12 12 13 12 14 15 16 17 19 20 19 19 19 22 24 25 25 26 26 26 27 27 27 27 25 23 23 23
9 10 10 10 10 10 10 10 10 9 9 10 9 9 9 9 10 11 11 11 11 11 11 11 10 10 10 10 10 11 11 11 12 11 11 11 10 10 10 10 10 10 10 9 9 9 9 10 12 12 13 14 14 13 13 13 13 13 13 13 13 13 13 13 15 16 16 17 19 19 19 19 20 23 25 25 25 26 26 26 27 27 27 27 25 23 23 23
10 10 10 10 10 11 11 10 10 9 9 10 9 9 9 9 9 10 10 10 11 11 10 10 9 9 10 10 11 12 10 11 12 11 10 10 9 10 10 10 10 10 10 9 9 10 9 10 12 13 13 13 13 14 14 13 12 13 14 13 13 15 15 15 16 17 17 18 18 19 19 20 22 24 26 25 25 26 26 26 26 26 27 26 25 23 23 23
10 11 11 11 11 11 11 10 10 9 10 9 8 8 9 9 10 11 10 10 10 10 9 9 10 9 9 10 11 12 10 10 10 10 10 10 10 10 10 10 11 10 10 9 10 10 9 10 12 13 13 13 13 14 15 14 13 13 13 13 14 16 16 15 16 18 19 18 18 19 20 21 22 23 25 25 25 26 26 27 26 25 26 26 24 23 23 23
10 10 10 10 12 12 11 11 10 10 10 9 8 9 10 10 11 11 11 11 10 10 9 9 10 10 9 10 11 11 10 10 9 9 10 10 10 11 11 11 12 11 11 11 10 11 10 10 12 12 12 12 13 14 14 15 14 14 13 14 16 16 16 16 15 17 19 18 19 20 20 21 21 22 24 25 25 26 26 26 25 25 25 25 24 23 23 23
8 8 9 11 12 12 11 10 10 10 9 8 8 9 10 10 11 11 11 10 10 9 9 9 10 9 9 9 10 11 10 9 9 9 9 10 11 11 11 11 12 12 12 12 11 11 11 10 11 13 12 12 12 13 14 14 15 15 15 16 16 14 14 15 15 17 18 18 19 20 21 21 21 22 24 24 25 26 26 26 25 24 24 24 24 23 23 23
8 8 10 12 13 12 11 10 10 9 9 8 8 9 10 10 11 12 11 10 10 9 9 9 9 9 9 9 9 10 10 9 10 9 9 9 10 12 12 12 13 13 13 13 11 11 11 10 10 12 12 11 12 12 12 13 14 15 15 15 15 13 13 15 16 17 19 19 19 20 21 21 22 24 25 24 25 26 25 25 25 25 24 24 24 23 22 23
7 9 11 12 12 12 11 11 10 9 8 9 9 9 10 10 11 12 12 11 10 10 9 9 9 9 9 9 9 10 9 9 9 9 9 10 10 11 13 13 13 13 13 13 12 11 11 10 10 11 12 11 11 12 12 13 13 14 14 14 14 14 14 15 17 18 19 19 20 20 20 21 23 26 26 26 26 26 25 26 26 25 25 24 24 23 22 22
6 9 11 11 12 12 11 10 9 8 8 9 9 9 10 11 11 12 12 12 11 10 10 9 9 9 9 9 9 9 9 9 9 9 9 10 10 11 13 14 14 14 13 13 12 11 10 9 9 10 11 11 11 12 13 14 14 14 14 14 14 14 14 15 16 18 20 20 20 21 20 21 25 27 27 27 27 25 25 27 27 25 25 25 24 23 23 22
7 9 11 11 11 12 11 10 9 9 9 10 10 11 11 11 11 12 12 12 11 11 10 9 9 8 8 8 9 9 9 9 9 9 10 10 10 11 13 14 14 15 14 13 12 12 11 9 9 10 10 11 12 12 13 15 15 15 15 15 15 15 15 14 15 18 20 21 21 21 20 22 26 28 28 28 27 26 26 27 27 25 24 25 24 23 23 23
7 8 11 12 11 11 11 9 9 9 9 10 11 11 12 12 12 12 12 12 11 11 10 9 9 9 8 8 8 8 9 9 9 9 10 10 11 12 14 14 14 15 15 13 12 13 12 10 9 10 10 12 12 12 13 15 14 14 14 15 15 15 15 15 16 17 18 19 21 21 20 22 26 27 28 28 26 26 26 25 25 24 23 24 23 22 23 23
6 6 9 11 12 11 10 9 9 9 9 10 10 10 11 12 12 12 12 12 11 11 10 9 9 9 9 8 8 8 9 9 10 10 10 10 11 13 14 13 14 15 15 14 13 13 12 10 9 10 10 11 11 11 12 13 14 13 14 15 15 15 15 16 17 18 18 18 21 21 20 23 25 25 26 27 25 25 25 24 24 24 22 22 22 22 23 22
6 6 8 10 11 11 10 9 9 9 8 9 8 9 10 11 12 12 11 12 12 11 10 10 9 9 9 8 8 8 8 9 9 10 11 10 11 13 13 13 14 15 16 15 13 13 12 10 9 10 10 10 11 11 12 13 13 14 15 15 15 15 15 16 16 17 18 19 21 21 21 23 25 24 24 26 25 25 25 24 24 24 22 22 22 22 22 22
8 8 8 8 9 9 9 10 10 8 8 8 7 9 10 10 11 12 12 12 12 12 11 10 10 9 9 8 8 8 8 9 9 10 10 10 10 12 13 13 14 15 15 14 13 12 11 9 10 10 10 11 11 12 13 13 13 14 15 15 15 16 16 17 17 17 18 19 20 21 21 22 23 23 23 24 24 25 25 24 24 23 21 21 22 22 22 22
8 7 6 6 7 8 8 9 8 7 7 7 7 9 10 10 11 12 12 12 12 12 11 10 10 9 8 8 8 9 9 9 9 10 10 10 11 12 13 13 14 15 15 14 13 12 10 10 10 10 11 12 12 13 14 13 13 14 15 15 15 16 16 16 17 18 19 19 19 20 20 21 22 22 22 22 23 24 24 24 23 22 21 21 22 22 22 21
7 7 6 6 6 7 7 7 7 6 6 7 8 9 10 10 10 10 11 12 12 12 11 10 10 10 9 9 8 8 9 9 10 10 10 10 11 11 12 14 14 15 14 13 13 13 11 11 12 11 12 13 13 13 14 14 14 15 15 15 16 16 16 16 16 18 19 19 19 20 20 21 22 22 22 21 21 23 24 23 22 21 21 21 21 22 21 21
6 6 6 6 5 5 5 6 6 6 6 8 9 10 10 9 9 10 11 11 11 11 11 10 10 11 11 10 9 8 9 9 9 10 10 10 10 10 11 13 13 14 14 13 13 13 12 12 12 12 12 13 13 14 14 15 15 16 16 16 17 17 17 16 17 19 20 19 19 19 19 21 22 21 21 21 19 21 23 22 21 21 21 21 21 21 21 21
5 5 5 5 5 5 5 6 6 6 7 8 9 9 9 9 9 9 10 10 10 10 11 10 10 11 11 10 10 9 9 9 9 9 10 9 9 10 11 12 12 13 13 13 12 13 12 12 13 12 12 13 14 14 15 16 16 16 17 17 18 17 17 17 18 19 20 20 19 18 19 21 22 21 20 20 19 20 21 22 21 21 21 21 21 21 21 21
5 5 5 4 4 5 6 6 6 6 7 8 8 8 8 8 9 9 10 11 11 10 11 10 10 11 11 11 10 9 9 9 9 9 10 9 9 10 10 11 11 11 12 12 12 12 12 12 12 12 12 14 14 14 15 17 17 17 17 18 18 17 17 18 19 19 19 19 20 20 19 21 23 22 21 21 21 20 21 21 21 21 21 21 21 21 21 20
5 5 5 5 4 5 6 5 5 6 7 7 7 7 8 8 9 9 9 11 11 11 11 11 11 11 10 10 10 10 10 10 10 10 10 10 10 10 10 11 11 11 11 12 12 12 12 12 12 11 11 14 14 13 14 17 17 17 18 18 18 18 18 18 19 20 20 19 20 21 20 20 21 22 22 22 21 20 20 20 20 21 21 21 21 21 21 21
Height
847 845 844 842 841 840 838 837 835 833 832 830 829 828 826 824 823 821 820 818 816 815 813 811 809 806 804 801 798 796 792 788 785 785 784 782 782 783 783 782 781 780 780 779 778 778 777 777 777 777 778 777 778 777 776 775 775 779 784 791 794 792 789 783 781 781 779 776 771 767 763 769 770 761 751 748 752 753 755 755 752 749 748 750 752 756 762 766
846 845 843 842 840 839 838 836 834 833 831 830 828 827 825 824 822 821 819 818 816 814 812 810 808 806 803 800 798 795 792 788 786 784 782 781 781 782 782 782 781 781 780 779 779 778 779 779 778 778 778 778 777 775 776 773 774 778 781 787 786 782 778 772 773 773 773 773 770 765 762 765 768 764 756 758 761 757 762 764 758 757 757 756 754 757 762 764
846 844 843 841 839 838 837 835 833 832 830 829 827 826 824 823 821 820 819 817 815 813 812 809 807 805 802 799 797 795 792 788 785 782 780 780 781 782 782 782 781 780 780 779 779 779 780 779 779 779 779 779 777 775 776 773 772 775 778 784 777 771 772 768 768 769 768 768 768 765 760 761 763 761 761 765 764 759 767 769 764 764 763 762 759 758 762 765
845 844 842 840 839 837 836 834 832 831 829 828 826 825 824 822 821 819 818 816 815 813 811 809 807 804 801 799 796 795 793 789 784 781 781 780 781 782 782 782 781 780 780 779 779 779 779 779 779 779 779 781 777 775 776 772 771 771 773 776 768 766 770 767 765 765 765 765 767 765 762 760 757 758 763 767 769 765 764 762 758 760 761 760 759 758 761 764
845 843 841 839 838 836 835 833 832 830 829 827 826 824 822 821 820 818 817 816 814 812 811 809 807 804 801 798 796 795 793 789 783 781 782 781 782 782 782 781 781 780 780 780 779 779 778 778 778 778 779 781 779 777 775 769 768 770 767 765 763 764 768 764 761 762 762 764 765 766 765 758 752 757 761 764 771 767 756 753 750 748 752 754 755 757 760 763
844 842 840 839 837 836 834 832 831 829 828 826 825 823 821 820 819 817 816 814 813 812 810 808 807 804 800 797 795 794 793 787 782 782 782 782 782 781 782 781 781 780 779 779 778 778 778 777 779 780 780 780 780 778 775 768 768 772 766 761 761 762 764 762 759 760 760 763 765 763 760 756 755 758 757 759 764 758 747 746 747 742 741 745 749 755 758 762
843 841 839 838 836 835 833 831 829 828 826 824 823 821 820 819 817 816 815 813 812 811 809 808 806 804 801 797 794 794 795 788 780 781 782 781 782 781 782 781 780 780 779 779 778 779 779 778 779 779 780 781 779 777 774 769 768 771 767 761 761 761 761 760 758 758 759 761 761 758 757 758 760 756 752 756 755 749 745 743 746 745 742 744 746 750 754 757
842 841 839 837 835 833 832 830 828 826 824 823 821 820 819 817 816 815 813 812 811 810 809 807 806 804 801 798 796 795 793 786 780 781 782 781 782 781 781 781 780 780 779 780 779 780 779 779 779 778 781 781 777 775 772 772 770 769 767 762 760 760 759 758 758 758 758 758 757 758 759 757 755 752 750 754 750 745 744 743 746 749 750 751 750 750 754 757
842 840 838 836 834 832 830 828 827 825 823 821 819 818 817 815 814 813 812 811 810 809 807 806 805 803 802 799 800 796 787 782 780 781 782 782 782 781 781 780 781 780 780 780 779 780 780 780 781 781 784 781 776 774 771 776 774 766 765 764 761 761 758 757 758 757 757 756 756 760 761 755 750 752 752 747 745 742 741 744 746 747 752 755 756 755 755 758
841 839 837 835 833 831 829 827 825 823 822 820 818 817 815 814 812 811 810 809 808 808 806 806 804 803 802 800 801 795 783 780 781 782 782 782 782 782 781 781 781 780 780 780 779 780 780 782 782 780 782 780 777 775 771 775 772 764 764 764 763 762 757 756 756 755 756 755 755 759 760 754 749 757 756 741 738 740 740 746 746 747 751 753 755 756 755 755
840 838 836 834 832 830 828 826 824 822 820 818 817 815 814 812 811 809 808 807 807 806 806 805 804 804 803 803 805 795 781 780 781 781 782 782 781 781 781 781 781 781 780 780 780 780 781 781 781 779 780 780 778 775 770 770 768 765 766 766 764 763 759 756 755 753 755 754 752 755 758 755 752 757 754 738 734 739 742 747 747 747 750 751 754 754 753 753
839 837 835 833 831 829 827 824 822 821 818 816 815 813 812 811 809 808 807 806 806 805 805 805 805 805 804 806 804 789 779 780 779 779 780 780 780 780 780 780 780 780 780 780 780 779 780 780 780 782 781 780 781 777 770 767 768 766 767 769 766 763 762 757 755 753 754 754 749 754 764 761 755 752 744 735 733 737 742 747 749 748 748 750 751 753 752 751
838 835 833 831 829 827 825 823 821 819 816 815 812 811 810 808 807 806 805 805 805 804 804 804 805 805 807 805 792 781 779 780 778 776 777 779 779 779 779 780 779 780 780 780 779 779 779 779 780 782 780 781 783 778 770 767 768 768 767 771 771 769 764 754 753 753 752 752 746 755 772 765 752 744 737 734 732 738 743 745 749 749 747 747 748 751 753 753
837 834 832 830 828 826 824 822 820 817 815 812 810 809 807 805 804 803 803 803 802 803 803 804 805 804 807 800 783 778 779 778 778 775 775 777 778 778 778 779 779 779 779 779 779 778 779 779 779 780 780 781 780 776 773 771 770 771 771 771 774 775 765 751 751 753 752 750 743 755 770 760 748 741 734 732 732 737 743 743 746 748 747 747 747 749 751 752
836 833 831 829 827 825 822 820 818 815 812 810 807 805 803 801 800 799 799 799 799 801 801 803 803 804 806 796 781 778 778 778 777 773 774 777 777 777 777 777 778 777 778 778 778 778 778 778 779 781 780 778 778 779 780 777 773 773 776 774 773 775 767 755 749 750 753 749 743 754 763 752 745 740 732 730 733 736 739 739 742 746 747 747 748 748 748 748
835 832 830 828 826 823 821 818 816 813 810 807 804 801 798 796 795 795 795 796 798 799 800 802 801 803 804 792 780 777 777 776 775 773 774 775 775 776 776 777 777 776 777 777 777 777 777 778 779 780 780 779 781 783 784 784 781 776 778 779 774 773 771 763 751 745 749 750 745 749 752 748 743 737 732 731 733 735 737 736 736 742 745 745 747 747 747 747
834 831 829 826 824 822 819 817 815 811 808 805 801 796 794 791 790 791 792 795 797 797 799 800 800 803 798 784 777 777 775 774 773 773 773 773 774 775 775 776 776 776 776 775 776 776 778 779 779 780 780 782 783 784 788 792 789 781 779 781 777 774 773 768 757 745 745 749 747 743 743 744 740 734 733 731 731 733 734 734 733 735 741 743 744 745 744 746
833 830 828 825 823 820 818 815 813 810 806 803 800 795 792 790 789 790 792 794 796 798 800 799 803 801 788 779 778 775 773 773 773 773 773 773 774 775 776 775 775 776 776 776 776 777 779 779 780 783 783 784 783 786 790 786 782 781 781 782 779 774 773 771 763 749 744 748 747 744 742 741 738 735 733 729 729 732 731 731 731 731 734 739 742 743 742 741
832 829 827 824 822 819 816 814 811 809 805 801 798 794 792 791 790 791 793 795 796 798 797 797 799 791 780 777 777 774 773 773 773 772 772 773 774 775 776 775 775 777 779 781 779 778 780 781 784 787 786 785 783 784 785 778 775 777 777 779 778 774 771 766 760 749 743 747 747 744 742 740 739 737 733 729 728 732 731 729 730 730 729 732 736 740 740 739
831 829 826 823 821 818 815 813 810 808 806 802 798 794 794 795 795 794 795 795 794 792 789 790 791 785 778 777 775 775 774 772 772 772 771 772 773 775 776 776 777 779 782 783 783 779 779 785 787 786 783 782 781 781 780 778 778 778 778 778 776 774 770 761 756 747 741 747 745 739 740 740 738 734 730 729 728 730 732 731 730 730 728 728 731 735 737 737
830 828 825 822 820 817 814 812 809 807 806 804 802 800 800 802 802 800 796 791 787 787 785 783 786 783 777 776 775 777 776 773 772 771 771 772 772 776 777 777 780 783 783 782 783 780 781 788 785 779 779 780 781 781 780 781 781 781 782 781 778 775 770 760 755 747 740 746 744 736 739 738 734 732 728 728 730 729 729 730 729 728 727 726 725 728 733 735
829 827 824 821 819 815 812 810 808 807 806 804 803 803 803 803 803 801 798 792 784 782 782 779 781 779 775 776 776 778 780 777 772 769 770 771 772 776 777 777 781 783 782 782 785 786 788 788 780 776 778 780 781 780 780 782 783 783 783 784 783 776 770 763 755 748 743 744 743 738 740 737 730 729 727 726 727 725 723 725 725 724 725 725 723 723 727 732
829 826 823 820 817 814 811 809 808 807 805 805 804 803 803 802 801 799 799 798 787 778 777 777 779 777 776 776 774 777 780 777 774 769 767 771 772 774 775 777 780 781 782 783 786 792 792 783 775 777 779 779 780 779 781 783 783 784 783 785 784 776 775 771 759 751 745 742 741 738 739 737 730 727 725 722 720 718 719 720 720 720 721 721 720 719 721 727
828 825 822 819 816 813 810 808 807 807 806 805 803 803 802 801 800 798 798 801 795 783 775 774 775 776 774 772 770 774 777 774 773 768 764 768 771 772 774 775 778 781 782 781 783 788 785 776 773 777 777 778 780 779 781 784 786 784 782 783 782 776 775 772 763 755 748 743 736 737 745 739 730 729 724 718 718 717 716 716 717 718 717 716 717 717 718 722
826 824 821 818 815 812 809 808 807 806 805 804 803 803 802 801 799 797 799 804 800 784 773 771 773 773 769 768 768 770 773 772 769 765 762 764 767 770 771 772 775 779 780 779 782 784 779 772 773 777 777 777 779 780 779 782 786 784 779 777 777 775 772 770 766 763 764 759 739 737 756 748 728 728 726 719 719 718 715 714 714 714 714 714 716 716 718 720
825 823 820 817 815 811 808 808 806 806 805 803 803 802 801 800 798 797 801 807 796 776 771 773 772 771 768 768 768 767 773 772 765 763 762 761 763 765 769 769 770 774 775 776 779 778 772 769 771 774 776 776 777 778 776 777 784 784 776 772 773 773 773 772 769 768 772 767 742 734 753 752 734 727 723 719 719 717 716 714 711 710 710 711 712 714 716 718
823 820 818 816 813 811 810 808 807 806 804 803 802 801 801 800 799 798 799 804 792 772 771 774 771 771 769 767 767 769 775 771 763 761 760 760 760 760 767 769 768 770 768 773 778 771 765 768 770 771 774 775 776 776 772 772 781 780 770 769 772 771 772 771 769 769 767 761 748 737 742 749 741 726 717 715 718 717 714 712 710 707 706 706 707 710 713 715
821 818 816 813 811 811 810 808 807 806 804 803 801 800 801 798 798 800 798 796 787 774 773 774 769 769 768 766 766 768 770 767 766 763 757 759 760 760 765 766 767 768 764 770 777 767 761 768 769 769 773 775 774 772 768 770 775 772 766 767 769 769 770 767 766 768 764 766 765 746 740 749 741 721 712 713 715 716 710 706 707 706 704 703 703 706 710 710
819 816 813 811 810 809 808 808 807 805 803 802 801 800 800 798 799 801 799 794 785 776 775 774 770 769 769 769 768 767 767 765 767 763 756 759 760 759 765 766 767 768 764 766 768 763 761 763 764 766 770 770 768 766 766 770 771 766 764 766 766 767 767 766 766 764 766 775 771 749 742 753 743 719 713 715 711 707 703 701 703 703 702 701 700 703 706 707
816 814 812 809 809 808 808 808 805 804 802 801 801 800 798 800 799 796 796 793 784 778 775 773 772 772 772 774 773 769 768 766 763 760 760 761 761 762 767 770 769 770 769 766 765 763 761 760 760 762 764 763 763 763 764 767 767 766 767 767 768 769 767 768 765 761 770 777 764 745 739 750 750 725 708 706 701 696 698 701 701 700 700 698 697 699 702 703
813 811 810 809 808 808 808 807 804 803 802 801 800 798 798 801 799 796 794 788 783 781 776 775 775 775 776 780 778 770 768 766 761 762 763 763 765 768 772 775 774 775 777 773 769 766 764 763 760 758 758 758 761 763 763 763 765 769 772 772 773 771 769 773 768 764 774 771 751 738 735 744 750 729 703 695 691 690 693 695 695 696 696 694 694 696 698 700
810 809 809 808 807 807 806 806 804 803 802 801 799 799 800 798 798 800 794 785 785 786 781 779 778 777 779 780 778 771 768 766 761 760 763 763 767 769 771 774 776 780 783 778 773 769 764 762 758 756 756 757 762 765 765 765 766 770 774 777 781 778 776 779 773 767 768 756 738 732 737 740 733 716 701 692 687 685 685 685 686 689 689 689 691 694 695 696
809 808 808 807 806 806 805 805 804 804 803 801 800 800 800 798 798 798 792 787 788 786 781 780 779 778 781 780 774 768 768 766 761 759 760 762 765 766 766 768 769 776 778 775 776 775 770 762 757 758 756 754 758 765 769 768 766 770 772 776 781 778 779 779 770 763 756 744 731 728 737 737 721 704 693 686 681 678 677 679 679 680 681 683 686 690 691 693
807 807 806 806 805 804 804 804 804 804 803 802 801 800 801 804 801 794 791 790 787 783 782 782 781 779 778 777 772 766 767 765 758 760 762 763 767 767 766 766 765 768 771 773 774 774 777 770 758 756 755 751 752 755 760 761 762 765 764 769 772 767 768 767 758 753 749 741 731 729 735 731 714 697 681 675 675 671 671 673 673 674 675 676 681 686 688 690
806 806 805 804 804 803 803 804 804 804 804 802 804 805 805 808 803 795 794 793 789 787 785 783 784 782 776 773 767 763 768 766 757 760 763 763 766 764 762 762 761 764 769 775 771 764 772 767 750 747 747 746 748 746 747 755 762 761 758 765 766 756 754 754 745 737 737 740 733 725 722 709 695 683 670 669 670 666 668 669 670 673 671 672 679 684 686 687
805 804 803 803 802 802 802 803 804 804 804 804 807 808 806 804 798 793 793 791 790 791 789 784 781 782 778 772 765 762 767 768 764 765 763 760 761 757 754 753 752 757 761 766 764 760 767 761 744 745 747 744 747 744 742 750 756 756 758 762 755 746 748 753 747 730 727 740 732 717 712 701 693 685 668 664 667 665 666 665 667 670 668 671 678 681 683 684
804 803 802 801 801 801 802 803 804 804 804 807 811 807 801 798 792 790 790 789 788 790 792 787 780 778 778 773 767 764 766 768 769 769 763 759 755 748 748 746 743 747 748 752 756 753 759 759 745 744 748 743 742 742 739 741 743 748 753 750 744 745 745 747 749 734 727 738 726 710 710 705 703 693 670 664 667 664 662 661 665 669 668 672 676 677 680 680
805 803 802 800 800 801 801 803 804 805 806 810 813 805 798 795 790 787 788 789 789 789 792 789 781 779 779 776 771 765 766 769 767 766 763 759 750 741 742 742 736 738 738 743 752 750 753 759 747 739 743 743 740 739 739 738 736 738 740 736 742 754 751 746 750 739 729 732 721 706 705 701 695 684 669 667 666 659 660 661 665 668 668 670 673 675 677 676
805 804 802 800 800 800 801 803 803 805 808 811 812 805 796 792 788 785 786 787 788 790 791 788 783 781 779 777 774 766 766 767 762 762 762 758 751 739 736 736 732 733 734 737 747 749 751 759 752 741 741 745 742 739 741 741 736 734 737 738 742 751 751 745 742 730 721 723 718 709 704 695 680 666 661 665 659 654 659 662 663 665 666 667 669 672 675 676
807 806 804 801 801 801 802 804 805 808 811 809 808 803 795 791 786 782 782 783 785 786 788 786 784 782 778 775 772 767 767 765 761 762 759 753 751 741 731 730 729 729 731 733 741 747 752 759 756 743 738 740 740 737 736 737 736 736 740 743 745 746 745 740 731 718 712 715 713 710 706 689 666 653 653 655 651 650 655 657 658 660 660 662 664 668 672 673
809 809 806 803 803 803 803 806 807 810 811 808 805 800 794 790 785 781 778 779 780 780 781 782 782 781 778 774 770 766 766 764 759 761 756 749 751 743 729 725 726 726 729 733 739 743 751 761 758 747 743 742 738 733 729 727 729 732 734 738 742 742 742 743 735 714 701 701 700 701 701 681 655 645 645 644 645 648 650 649 651 654 655 656 659 662 666 668
813 811 807 804 805 803 804 808 808 808 808 804 799 795 790 786 783 779 776 775 777 776 777 780 780 781 779 775 771 768 767 763 758 757 753 747 750 743 728 722 722 722 725 730 734 735 742 755 757 750 744 737 731 729 726 722 722 726 729 730 734 736 737 742 737 714 698 693 686 688 694 675 647 638 638 638 642 644 644 644 645 649 650 651 655 659 661 663
816 813 806 803 805 804 807 810 808 807 806 800 794 791 788 785 782 778 774 774 775 776 778 779 778 777 775 774 773 769 766 761 755 753 750 745 742 733 723 721 720 719 722 728 733 733 737 749 754 750 741 731 728 728 725 721 723 728 729 727 728 731 729 729 725 715 711 703 686 687 695 673 644 637 634 633 639 641 642 642 643 647 649 649 654 658 659 662
819 816 808 804 804 804 809 812 810 809 806 799 796 793 788 784 781 778 776 775 774 774 777 777 775 773 770 771 773 768 764 760 753 748 746 743 736 726 721 721 719 717 717 721 728 731 737 749 754 751 746 738 734 732 729 726 726 728 726 722 723 725 725 724 718 712 715 706 685 685 691 669 646 643 639 634 639 641 642 642 641 644 649 652 654 656 658 662
819 816 810 807 805 805 809 810 810 811 808 804 803 797 789 784 779 777 777 773 769 771 773 772 770 769 767 769 769 765 763 762 755 746 743 744 737 725 720 719 717 715 712 714 722 728 737 748 750 748 747 743 738 733 729 727 725 722 719 717 719 722 724 725 719 712 711 700 681 677 677 662 649 650 645 639 641 641 641 642 641 642 647 651 654 656 658 662
819 818 817 813 808 807 810 809 809 813 813 812 808 798 791 787 780 775 774 770 766 766 768 767 765 767 768 767 766 763 760 760 756 749 746 746 738 725 719 715 713 712 712 715 723 730 740 747 744 741 740 737 733 726 720 721 723 720 716 715 717 718 716 715 714 710 705 698 686 677 672 663 658 657 653 648 644 641 642 643 643 645 648 650 652 655 658 661
822 825 827 825 818 812 811 810 812 815 815 815 811 798 791 789 782 776 772 769 766 765 766 765 764 766 768 766 764 761 758 756 753 750 748 744 736 729 722 714 710 710 712 717 721 728 739 742 736 735 733 725 721 716 713 716 719 716 714 714 716 715 711 712 713 704 698 700 694 681 674 670 665 662 659 654 647 643 643 644 644 646 649 651 653 655 658 662
827 829 831 832 829 824 819 815 815 817 814 812 808 797 791 790 786 782 776 769 766 765 766 765 764 763 763 763 764 762 757 754 751 749 748 742 737 735 726 715 713 715 716 719 719 723 732 732 725 727 726 717 714 712 711 713 712 709 709 710 711 711 709 712 710 699 693 697 692 681 675 672 667 663 659 655 650 644 642 643 644 646 648 650 654 657 661 664
831 832 831 831 832 831 827 823 820 819 814 808 802 796 794 793 790 786 779 772 769 767 767 767 762 757 755 756 760 761 757 754 752 749 747 744 742 741 733 724 721 720 719 722 721 721 727 727 720 721 721 715 713 711 709 709 706 702 703 703 702 704 706 707 703 692 686 687 686 685 682 672 664 662 657 654 651 644 640 643 645 647 649 652 656 659 662 666
835 836 834 833 832 829 827 823 820 818 812 806 803 800 797 797 793 787 780 777 775 770 766 766 762 756 754 752 755 758 757 755 754 749 746 746 745 741 736 731 727 724 723 723 723 722 724 723 719 720 720 713 709 708 705 702 701 699 699 698 696 699 701 699 693 686 684 684 684 689 688 672 659 658 657 653 649 643 642 644 647 648 649 651 657 661 663 666
836 836 835 835 833 828 825 823 820 818 811 808 808 805 800 798 796 790 782 775 773 771 767 765 761 756 753 752 751 752 752 751 750 746 743 744 743 740 737 733 731 731 727 724 724 722 723 723 720 722 721 709 704 707 701 693 692 694 694 693 694 697 697 693 688 685 685 686 682 685 687 673 657 654 655 652 647 646 648 648 649 651 651 651 656 661 664 667
837 836 834 836 834 828 825 825 822 819 813 811 813 809 805 800 794 791 786 774 768 768 766 763 760 756 756 755 750 747 746 745 743 740 738 738 737 736 735 733 732 733 729 726 725 723 724 725 724 728 725 709 703 709 700 690 692 695 691 687 690 694 694 691 688 682 680 683 680 679 683 676 662 655 652 650 649 651 654 654 652 653 654 654 655 658 662 665
Wind_Speed
17 16 17 17 17 17 18 18 18 18 18 18 18 18 18 18 18 18 18 19 20 20 20 22 22 23 25 27 28 28 30 27 22 16 6 4 2 1 2 9 15 13 9 7 4 4 6 6 7 7 4 2 1 3 2 3 2 1 3 5 7 7 7 6 8 6 3 6 7 8 9 5 7 9 7 7 8 6 1 5 5 3 4 11 15 25 31 31
17 17 18 17 17 17 18 18 18 18 18 18 18 18 18 18 18 18 19 19 20 20 21 22 23 24 26 27 27 27 29 26 19 13 7 4 3 2 3 8 13 10 7 4 6 8 5 3 7 9 3 2 2 3 3 3 3 4 4 6 9 7 6 6 8 6 5 8 8 10 12 7 6 6 5 8 10 6 3 5 6 9 8 9 16 26 28 30
18 18 18 17 17 17 18 18 18 18 18 18 18 18 18 18 19 19 19 19 20 20 21 22 23 25 27 26 26 26 25 19 9 5 3 3 5 3 3 8 12 8 7 5 6 8 5 6 9 7 1 2 3 3 4 3 4 5 4 6 9 7 6 6 8 7 7 7 9 12 13 10 8 3 2 8 13 9 2 7 7 10 10 11 14 19 23 26
19 19 18 18 18 18 18 18 19 20 20 19 19 19 19 19 19 19 19 19 19 20 20 22 22 25 26 25 24 22 16 8 2 1 3 7 5 0 3 8 9 6 7 7 6 7 8 9 9 4 2 2 3 3 4 5 4 3 6 9 8 7 8 7 8 8 7 7 9 11 14 16 10 3 2 5 10 10 3 9 10 13 14 15 15 16 20 21
19 19 19 19 19 19 20 20 20 21 21 20 20 20 20 19 19 19 19 19 19 20 20 21 22 25 26 24 22 16 8 3 1 2 2 5 2 3 6 7 7 7 9 9 7 8 10 7 4 2 2 2 2 3 5 6 4 3 7 11 9 7 8 8 9 9 8 8 10 10 12 16 11 3 4 6 6 7 6 5 11 18 18 18 17 16 16 16
19 19 19 20 20 20 21 21 21 21 21 21 20 20 20 20 20 20 20 20 20 20 20 20 21 23 24 24 16 6 2 1 3 1 1 2 3 5 7 7 7 9 11 12 11 9 8 5 0 1 1 1 3 4 4 5 5 5 8 10 10 7 6 7 9 9 9 10 12 12 12 12 14 10 6 7 7 9 10 3 10 16 21 24 19 17 17 17
20 21 20 20 20 21 21 21 21 21 21 21 21 20 20 20 19 20 19 20 20 19 20 19 20 21 23 22 10 2 2 4 6 1 2 3 5 6 8 9 7 9 12 13 11 6 5 5 2 2 2 1 4 4 4 5 6 9 9 9 9 9 9 8 7 8 10 12 12 11 11 12 16 16 8 6 7 10 10 2 9 10 11 21 21 20 20 19
21 21 21 21 21 22 22 22 22 22 22 22 21 21 21 20 20 20 19 19 19 19 19 18 19 20 21 17 7 2 2 5 3 4 5 5 6 7 10 10 6 9 13 10 9 6 4 4 3 1 1 2 4 4 5 5 7 10 10 8 7 7 10 9 8 9 10 11 10 9 12 15 17 16 11 8 8 10 8 2 8 9 5 11 15 18 17 14
20 21 21 22 22 22 22 23 23 23 23 23 22 21 22 22 21 20 19 19 19 18 18 17 19 19 18 12 3 2 3 3 2 5 5 4 5 7 9 7 6 9 11 11 12 8 4 3 5 4 3 4 5 5 5 4 5 6 6 6 6 6 7 8 10 12 12 9 8 10 13 16 14 11 13 13 12 12 10 3 8 14 11 10 10 12 14 13
21 21 21 22 22 22 23 23 23 23 23 23 23 22 23 23 22 21 20 19 18 17 18 17 18 17 17 10 4 1 2 3 5 3 1 4 6 8 7 6 7 9 9 12 13 9 5 4 5 5 4 4 4 5 5 4 3 6 6 6 6 7 8 8 11 13 12 11 11 13 15 15 11 6 11 15 11 7 6 3 8 13 13 13 12 12 13 15
21 21 21 22 22 23 23 23 24 24 24 23 23 23 24 23 23 22 21 20 18 17 16 16 16 15 14 8 3 2 5 5 3 5 8 7 7 7 6 7 8 9 9 9 11 11 8 7 7 5 2 2 5 6 5 3 5 7 7 8 7 7 8 9 11 12 10 10 13 15 15 16 12 8 14 18 12 7 5 1 10 13 12 13 14 14 13 13
21 22 22 22 22 23 23 23 24 24 24 24 24 24 24 24 23 21 21 20 18 16 15 14 13 11 10 5 4 8 6 7 12 15 12 7 7 7 6 8 9 9 9 7 10 14 13 12 9 3 1 3 5 4 4 6 7 6 4 5 7 7 8 9 10 10 9 8 10 11 12 15 15 16 18 19 16 10 6 2 9 12 12 14 13 13 11 11
22 22 22 22 23 23 24 24 25 25 25 25 25 25 25 25 24 22 21 19 18 16 14 12 10 8 4 1 10 14 14 16 18 18 12 6 8 7 4 7 8 9 9 8 11 13 13 13 8 2 2 3 3 3 7 8 5 5 3 1 4 6 9 9 7 8 10 9 8 8 9 13 18 23 21 18 17 10 6 5 9 11 10 13 14 12 9 7
23 23 23 23 23 24 24 24 24 26 26 26 27 27 26 26 25 23 21 20 18 14 11 8 5 5 3 6 16 16 15 16 17 17 11 6 8 9 7 8 9 10 11 12 14 12 11 12 8 3 3 2 3 5 7 6 2 2 4 2 2 4 7 6 5 7 10 9 8 9 10 12 15 21 22 18 15 10 9 9 8 11 10 10 12 13 11 8
24 23 23 23 24 24 24 24 25 26 27 28 29 29 29 28 27 25 22 18 13 9 7 6 5 4 3 9 14 10 11 8 12 11 6 6 8 8 8 8 9 10 10 13 14 12 11 10 6 2 3 2 2 4 4 4 2 0 3 4 4 6 6 4 6 8 9 8 9 11 10 11 12 17 21 18 15 13 13 13 8 10 11 10 9 11 12 10
24 23 23 23 23 24 25 25 26 27 29 30 30 31 30 29 26 21 15 10 6 3 4 4 5 6 2 6 8 8 6 6 9 4 2 9 11 10 8 5 7 8 8 10 12 13 10 6 2 2 2 2 2 1 3 4 4 1 3 6 4 5 5 4 7 8 8 6 9 14 12 9 8 11 13 14 17 19 16 16 14 9 11 12 9 9 10 9
25 23 23 23 23 24 25 26 27 27 29 29 30 31 27 22 15 8 2 3 2 3 5 1 3 7 4 8 8 7 5 8 9 4 9 12 14 13 7 2 3 5 8 9 8 9 5 2 1 1 1 0 0 1 1 3 5 3 3 4 3 4 3 4 6 6 7 8 11 16 15 9 5 6 8 10 16 22 20 17 17 13 9 11 9 10 12 11
25 23 24 24 23 25 26 26 27 27 28 28 29 28 18 12 7 6 10 10 7 5 3 1 3 4 3 6 4 5 4 4 6 8 12 12 14 14 8 2 2 4 6 6 3 4 2 0 2 1 2 1 2 2 4 7 7 6 5 2 1 3 5 6 6 5 7 11 13 15 16 14 10 6 6 8 12 18 21 18 15 15 11 9 9 11 13 14
25 24 24 24 24 26 26 26 27 26 26 26 27 21 8 10 12 11 13 10 6 4 1 2 4 2 2 4 4 6 11 13 7 7 13 13 13 13 8 3 1 2 2 3 2 3 3 0 1 2 3 4 6 6 8 9 5 5 4 2 3 5 6 8 7 7 8 9 13 15 14 13 13 11 10 9 8 11 16 18 14 13 13 9 9 9 11 14
25 25 25 25 25 26 27 27 25 22 23 25 27 18 7 6 6 4 4 4 5 6 6 5 7 6 7 7 7 11 17 18 10 5 13 14 10 8 5 2 1 2 1 2 1 2 3 3 3 5 8 8 7 7 8 7 5 5 5 3 6 7 7 8 8 10 10 9 11 15 15 12 12 15 15 12 9 7 10 15 15 12 12 11 9 9 10 13
26 26 26 26 26 27 27 26 22 18 19 22 20 10 3 3 2 2 4 5 10 13 13 11 12 13 13 12 12 13 12 13 11 7 11 13 9 7 3 2 3 1 2 3 1 3 0 3 8 10 9 7 5 5 6 7 6 6 6 5 6 7 8 9 9 10 10 11 11 11 13 14 13 13 15 14 12 11 10 11 13 14 13 12 12 11 10 9
27 26 26 26 27 27 26 23 17 15 16 16 12 3 2 4 2 4 5 5 9 12 15 15 14 15 17 18 19 14 8 8 11 10 9 11 7 5 3 3 4 3 3 3 1 3 2 5 11 9 5 4 5 6 7 7 6 6 6 5 6 6 7 9 11 12 10 9 10 10 9 12 13 12 12 14 15 16 13 11 11 12 13 12 12 12 9 8
27 27 26 26 27 28 25 20 13 12 14 14 12 7 5 6 7 10 6 3 8 6 10 11 11 11 12 15 18 14 8 7 8 9 8 11 6 5 5 4 5 4 4 4 3 3 4 7 8 5 3 5 7 8 8 6 5 6 5 5 7 7 6 7 9 12 12 9 9 11 9 8 10 11 12 14 15 16 16 14 11 11 12 12 12 12 9 10
28 27 26 26 28 26 22 17 10 10 13 13 12 7 5 7 10 12 6 1 6 5 5 8 8 7 8 10 9 11 8 6 5 7 8 11 5 3 5 5 5 4 4 6 7 7 9 9 4 3 5 7 8 8 7 5 4 6 7 7 7 8 10 8 8 11 12 11 10 9 8 7 9 12 13 12 13 15 16 17 15 11 10 11 10 10 9 9
28 28 27 27 26 23 19 13 8 12 14 8 6 8 8 10 12 11 5 0 4 5 4 5 5 5 7 7 5 9 5 5 6 7 7 10 8 5 4 4 4 4 6 8 8 7 11 10 5 6 7 6 8 7 6 5 4 6 8 9 10 11 12 11 12 11 7 9 9 8 7 7 8 12 12 9 11 15 14 17 19 15 11 10 9 9 8 9
29 28 28 25 23 21 15 6 8 15 11 4 7 12 12 12 12 9 4 1 3 3 2 1 2 2 3 2 2 4 3 3 7 9 7 6 8 7 4 3 2 4 7 6 5 5 6 6 6 7 8 7 8 6 6 6 4 6 6 8 11 12 13 13 14 12 5 6 9 7 8 6 5 9 12 10 13 15 14 16 19 18 15 11 10 8 8 9
30 29 27 23 20 17 9 4 11 13 5 3 8 13 13 12 11 7 3 2 2 1 1 0 1 0 2 1 2 2 2 2 5 6 6 3 5 7 6 4 3 4 5 3 3 4 4 6 6 7 7 6 7 6 6 6 5 7 6 7 9 11 13 14 15 11 6 6 10 10 8 6 5 7 11 13 15 16 16 17 17 17 17 15 13 10 10 11
30 28 25 22 17 10 8 8 12 9 4 5 9 11 13 12 9 5 3 2 2 1 1 2 0 1 2 2 2 1 3 2 3 5 3 3 2 3 6 6 5 5 5 5 6 3 4 6 8 8 7 5 5 6 6 5 6 7 6 7 9 10 12 13 12 11 7 6 9 13 9 6 7 6 7 12 17 18 19 20 17 15 15 16 15 12 11 13
30 28 24 20 11 4 6 9 9 7 7 8 8 10 13 11 6 3 2 1 2 1 1 0 2 3 3 4 3 2 3 2 3 4 1 3 2 2 2 2 2 4 5 7 9 5 3 5 7 7 6 6 6 6 5 5 7 8 7 9 9 10 11 11 10 9 7 5 10 15 10 5 5 4 6 10 15 19 19 17 15 13 13 15 16 13 12 13
30 26 21 16 7 2 3 7 8 9 10 8 8 11 12 8 4 4 1 0 1 3 1 1 2 3 3 4 5 4 5 6 4 3 1 1 3 3 3 3 3 1 3 5 9 6 1 2 3 4 5 6 6 6 6 7 8 6 6 8 8 9 9 8 8 6 6 7 13 19 14 7 6 5 8 10 12 14 13 12 13 13 13 15 15 12 12 13
28 22 16 11 5 3 3 4 6 9 8 8 10 11 8 3 3 4 1 1 1 3 2 2 2 2 4 4 6 5 5 6 3 3 3 0 2 3 4 2 1 1 3 5 6 4 3 4 3 3 5 4 5 5 6 7 6 3 4 5 4 6 6 5 7 6 6 8 13 18 16 11 8 7 8 10 10 11 13 15 16 16 16 17 13 10 12 13
24 16 10 7 5 7 6 3 5 6 6 10 10 5 3 3 3 2 1 2 1 1 2 3 3 2 5 7 7 6 4 4 3 5 5 3 3 2 2 3 3 2 4 5 4 3 4 7 6 5 5 5 5 4 4 5 5 4 4 4 4 4 4 5 6 5 7 10 13 14 11 10 10 8 9 12 12 13 14 15 17 18 20 18 12 10 12 13
20 12 7 5 6 9 8 5 5 4 7 12 9 3 4 4 2 2 3 2 2 2 3 4 5 6 8 8 6 4 2 3 3 4 4 4 4 4 5 7 7 6 4 4 4 3 4 5 6 7 6 7 8 6 4 4 5 7 6 4 5 5 5 6 5 6 8 10 13 14 8 7 8 6 10 15 15 16 16 16 18 20 21 18 12 12 13 14
17 9 7 7 8 10 8 6 4 4 8 10 6 4 5 3 1 3 3 2 3 4 4 3 8 11 8 5 4 1 1 4 3 2 3 2 2 3 4 6 11 9 4 3 3 4 5 5 5 9 5 6 12 11 9 7 5 6 7 6 7 6 5 5 5 7 8 7 10 13 8 5 6 5 10 15 16 16 16 16 18 18 18 16 11 13 14 15
14 8 8 9 9 8 6 4 2 4 6 5 5 3 4 1 2 3 2 2 2 5 6 6 8 9 5 4 4 2 2 3 3 1 3 4 3 4 3 5 11 10 5 4 3 4 6 6 6 9 4 4 10 12 12 10 5 5 6 6 7 8 7 4 4 7 6 4 7 9 6 5 5 6 10 15 16 16 15 16 17 16 16 13 10 13 14 14
12 8 6 8 9 6 4 4 4 4 3 4 5 2 1 1 3 1 1 2 3 5 8 9 5 4 3 2 3 1 3 3 4 4 4 5 5 6 5 5 9 12 10 6 3 3 5 6 4 6 4 6 10 11 12 11 7 4 6 7 8 10 9 6 6 5 6 5 6 5 4 5 6 7 9 16 16 16 17 17 16 15 14 11 10 13 14 14
14 12 7 7 7 4 4 5 7 5 0 5 2 1 1 3 3 2 1 3 5 4 5 5 2 2 3 2 2 2 1 2 3 3 2 3 5 6 7 6 7 14 14 8 3 2 4 4 3 6 8 9 12 15 14 15 11 5 5 9 9 10 10 6 5 4 5 5 5 5 6 7 7 6 7 15 18 18 19 16 12 11 11 10 11 13 16 17
14 11 7 6 3 2 4 8 11 5 3 3 1 3 2 3 2 2 2 1 3 3 2 3 1 2 2 2 3 4 3 3 2 2 2 3 3 4 6 5 7 14 16 12 5 2 3 4 5 6 8 6 7 9 10 14 16 11 6 5 4 5 8 6 4 4 4 4 4 6 8 8 7 5 6 13 18 18 18 13 9 10 10 10 11 14 17 18
10 5 4 4 1 6 9 12 10 4 3 1 2 3 2 3 4 4 3 2 2 2 2 4 2 2 3 3 5 6 5 6 5 3 2 3 2 4 5 4 6 11 14 14 7 2 3 2 3 3 4 2 2 4 5 7 12 13 9 5 2 2 4 4 5 5 4 5 4 5 7 6 6 6 8 13 17 17 13 9 8 10 11 11 12 13 15 16
6 2 2 1 7 10 12 11 5 3 1 1 2 3 3 4 5 6 5 4 2 2 3 3 3 2 3 4 6 6 4 6 6 2 2 3 3 6 6 5 4 7 12 14 8 3 2 1 4 2 2 1 1 3 6 7 7 8 9 7 4 4 4 3 5 6 4 4 3 4 5 5 6 5 9 13 15 14 11 10 10 10 12 13 13 14 15 15
4 3 1 5 10 10 9 5 2 1 2 2 2 4 4 3 4 7 6 6 4 4 4 5 5 3 3 4 5 5 3 4 4 2 3 3 2 3 4 5 4 4 9 11 8 5 3 2 4 4 3 2 3 5 7 9 8 7 7 7 6 6 4 2 4 5 4 4 5 4 3 6 6 4 6 9 10 8 10 12 11 11 14 15 14 16 17 17
2 2 2 1 6 4 4 2 2 1 2 3 3 4 5 4 5 6 5 4 4 4 4 4 5 4 4 4 4 4 3 3 4 3 3 3 4 5 6 6 5 4 6 6 5 5 4 2 2 4 6 6 7 10 10 8 7 4 4 7 6 4 4 3 4 4 3 4 3 3 4 6 6 5 6 7 7 7 9 11 10 11 14 15 14 15 18 18
1 3 6 6 5 5 3 2 3 1 2 4 4 6 6 5 5 5 4 3 2 2 2 3 4 4 4 4 4 4 3 3 4 4 3 3 5 8 9 10 8 5 4 3 4 4 4 2 2 4 5 6 7 9 8 7 6 1 4 6 6 5 6 6 6 4 4 6 4 3 5 7 6 5 6 6 5 7 8 9 9 9 9 11 14 15 16 16
2 4 5 9 1 4 2 1 3 4 4 5 7 8 7 4 4 6 7 5 2 2 2 3 5 5 4 4 4 4 4 3 3 5 5 3 3 7 10 11 8 3 4 4 6 4 2 2 2 3 2 2 2 2 3 4 3 2 4 6 7 8 9 8 7 4 4 8 5 5 4 7 6 5 6 7 3 6 7 9 9 10 8 9 12 14 15 15
4 2 3 8 5 1 1 1 2 4 6 8 9 10 7 4 4 6 10 8 4 3 2 4 6 6 6 6 5 5 5 4 4 3 3 2 4 7 8 10 9 4 2 9 12 5 1 3 2 2 1 2 2 2 2 2 2 2 4 7 8 8 9 7 5 3 3 6 5 5 4 6 6 7 8 8 4 7 8 8 8 9 10 11 12 12 13 14
3 2 3 6 5 3 1 1 2 2 4 7 8 6 6 6 5 5 8 7 4 4 3 4 4 4 6 6 4 4 5 6 7 4 3 4 4 5 9 14 9 4 14 19 16 5 0 3 4 5 4 3 3 4 3 2 2 2 4 6 6 7 8 7 5 4 4 5 5 3 4 2 7 7 6 8 5 6 8 8 7 8 9 11 12 13 13 13
2 1 3 4 3 4 3 2 3 3 5 5 4 4 6 8 8 6 6 5 4 4 3 3 3 2 6 5 3 3 3 4 6 5 5 6 4 5 12 13 3 13 19 16 10 4 1 2 5 7 7 6 6 6 5 4 5 6 6 5 5 6 7 6 6 6 4 3 5 6 1 2 5 7 5 8 7 4 6 8 8 9 10 11 11 13 14 13
3 0 1 2 2 3 3 4 6 9 11 7 2 4 6 9 10 9 6 5 6 4 2 3 4 6 9 7 3 3 2 2 3 3 4 5 4 6 8 7 8 10 10 6 2 3 2 3 4 4 5 7 7 7 7 7 8 7 7 5 6 7 6 5 8 9 6 3 4 7 4 2 4 7 6 7 7 5 6 6 6 9 12 12 12 13 13 14
3 0 1 2 1 3 4 8 10 9 11 8 3 3 7 10 12 11 7 7 7 5 5 7 10 12 13 9 3 2 2 3 3 2 2 4 5 4 4 4 5 4 4 3 1 1 2 2 3 2 5 7 5 6 8 8 7 5 5 6 6 6 5 7 11 10 6 4 2 4 6 4 4 6 7 8 8 4 4 6 7 9 12 13 13 13 14 14
2 1 2 2 3 4 5 6 7 6 7 6 4 5 8 10 12 13 11 9 8 7 8 12 15 15 14 10 3 4 4 5 6 6 3 4 4 2 1 2 3 4 3 1 1 1 2 1 2 2 3 4 3 3 3 5 4 4 4 4 2 2 5 7 9 6 4 5 2 1 5 6 3 5 6 6 4 4 6 9 9 9 13 15 13 12 13 15
4 3 3 2 3 4 4 4 5 5 4 4 5 7 9 10 13 15 12 7 7 9 10 13 16 13 10 10 7 6 6 6 9 10 7 6 5 2 2 2 3 6 5 1 1 1 1 1 3 4 3 4 3 6 5 0 2 1 2 2 1 2 4 6 7 4 2 4 1 2 2 5 4 4 4 4 7 10 8 7 8 7 9 15 16 14 13 14
8 6 4 3 3 3 4 5 5 4 3 4 6 8 9 11 13 13 9 5 7 11 12 12 13 11 8 10 11 10 9 8 9 9 7 7 8 6 6 7 6 6 4 2 2 1 1 1 2 2 3 4 5 8 6 2 4 3 4 3 2 2 4 6 7 6 5 4 2 2 3 6 7 4 2 6 9 10 7 4 5 5 5 9 14 16 16 16
Wind_Direction
351 349 347 346 344 343 341 340 340 340 340 339 339 336 336 338 336 335 335 335 334 334 334 333 333 332 330 329 332 337 335 330 326 324 310 233 218 263 313 358 354 343 328 319 338 336 326 325 332 329 301 294 215 211 235 201 196 165 169 213 222 215 208 183 192 198 209 260 260 264 270 261 285 295 310 326 301 285 75 142 156 57 109 151 150 153 155 156
350 348 345 344 344 344 341 339 339 339 338 338 338 336 334 334 335 334 333 333 332 332 333 332 331 329 328 329 334 339 334 326 317 303 287 232 198 224 264 347 347 343 344 340 16 12 355 328 330 340 330 208 237 205 205 208 186 188 183 210 224 215 198 182 195 205 211 246 266 270 270 262 259 279 318 317 298 303 58 111 109 86 90 116 135 146 153 161
349 346 344 343 343 343 341 338 338 338 336 337 336 336 334 332 332 332 331 331 331 331 331 330 330 329 328 330 336 341 331 324 323 306 341 113 151 205 267 342 342 341 357 351 348 341 318 299 301 315 292 220 258 211 205 210 195 201 197 217 225 208 202 196 192 207 215 239 266 273 275 268 249 233 305 296 296 307 113 140 125 115 127 135 141 147 154 165
347 344 343 343 342 341 339 337 337 336 335 335 333 334 333 331 330 329 330 329 329 331 330 330 330 329 329 332 339 339 331 327 341 303 66 102 127 214 330 348 348 352 3 357 338 322 313 300 288 281 210 251 266 225 218 215 207 197 199 224 224 194 208 207 194 216 221 230 251 265 276 273 263 203 200 263 289 302 233 174 160 143 153 156 152 156 158 167
344 342 342 342 341 340 339 338 336 334 332 330 328 329 328 328 327 326 327 326 328 328 328 329 330 330 328 335 340 334 336 10 336 253 114 94 79 14 8 4 8 1 352 349 339 330 325 306 275 268 222 238 245 222 230 225 225 248 228 230 224 193 206 206 200 219 223 232 247 256 264 270 276 239 196 223 244 271 262 213 175 157 159 164 159 160 160 167
341 342 343 340 340 338 337 337 333 331 329 326 324 324 324 324 322 323 323 322 324 325 326 328 330 331 330 339 344 337 32 345 284 268 144 75 42 35 27 16 11 356 344 341 337 336 331 319 262 214 214 236 236 229 253 242 216 244 247 236 229 215 210 208 206 212 214 228 240 248 255 267 281 274 231 218 227 247 270 274 182 173 161 164 162 159 164 172
341 343 343 339 338 335 334 333 330 328 328 326 322 321 321 322 322 321 320 321 322 323 326 327 330 332 335 345 355 65 78 275 278 255 151 93 57 37 20 6 2 355 344 336 331 332 335 332 308 213 203 250 250 240 258 260 238 239 245 243 236 228 228 226 222 218 213 222 231 244 256 259 266 271 256 213 228 243 269 2 166 189 162 163 163 163 171 175
338 339 339 337 335 333 331 330 329 327 326 326 323 321 320 319 321 320 320 321 321 323 325 327 333 335 339 351 6 20 304 256 250 154 139 97 60 25 6 1 355 347 342 334 329 330 339 337 332 286 238 258 258 254 253 265 261 246 243 251 245 234 235 233 240 240 230 228 233 244 253 250 249 264 274 244 248 247 254 5 158 183 163 168 171 165 166 168
336 334 333 333 332 332 330 329 328 326 325 323 322 321 319 319 319 319 319 319 320 323 325 329 332 337 347 356 11 347 289 241 158 139 127 78 28 360 351 358 350 343 341 337 340 347 359 353 358 3 307 281 269 269 266 247 258 261 265 268 259 253 243 227 231 237 239 237 231 239 246 252 252 269 282 258 251 254 250 256 167 168 163 171 174 162 159 163
336 334 332 331 330 331 330 328 326 324 324 322 320 319 318 317 317 317 317 317 320 320 322 327 332 340 352 3 41 360 249 155 126 124 29 328 330 330 329 345 345 344 340 333 336 345 2 346 342 331 280 281 276 275 264 238 282 315 317 308 286 274 263 236 227 227 234 239 231 238 244 251 258 262 272 263 248 255 266 223 165 161 162 168 166 167 171 172
335 335 332 330 329 328 327 327 325 322 322 320 318 316 315 315 313 314 314 314 316 316 319 324 331 340 346 1 48 221 202 161 177 299 322 312 309 318 322 323 320 328 331 328 322 321 328 331 346 340 278 335 323 299 272 281 335 328 322 317 303 288 278 254 239 229 221 231 228 235 250 254 259 245 247 260 257 253 291 174 161 165 164 169 170 174 180 184
334 333 330 329 328 327 326 326 325 322 320 318 316 314 313 311 309 308 308 308 308 309 313 316 324 329 335 347 227 232 239 265 285 298 307 306 308 312 311 307 303 306 308 306 303 306 311 319 344 357 275 351 333 308 300 329 340 321 328 311 295 297 282 259 246 240 223 223 216 219 250 252 247 245 241 252 257 251 266 217 165 178 171 168 178 181 188 193
333 331 330 329 328 326 325 325 323 321 319 316 314 312 310 308 306 303 300 300 298 299 302 306 313 305 321 298 250 264 284 290 297 297 286 290 317 310 288 298 298 285 278 273 279 291 298 305 319 295 288 331 295 287 309 322 331 316 329 280 294 292 265 249 239 245 236 222 193 188 233 239 235 243 243 246 253 251 256 235 174 185 184 173 179 182 195 208
333 331 329 329 327 325 324 323 322 320 318 315 313 311 308 305 301 298 296 293 290 292 293 293 299 282 242 253 270 293 314 302 293 287 274 279 309 302 281 282 287 278 270 262 264 277 283 289 299 295 285 248 258 306 317 318 329 327 309 260 225 242 248 241 221 229 235 224 186 187 229 234 228 237 243 243 249 252 253 249 185 178 191 183 178 182 189 199
336 333 330 329 327 325 323 323 322 320 317 315 314 311 307 303 301 299 296 291 290 290 285 278 256 241 258 268 273 309 341 304 270 274 271 259 269 275 270 266 280 287 277 263 258 263 268 276 292 306 276 263 304 325 327 326 329 54 258 253 205 217 251 267 244 220 224 229 191 195 232 238 226 231 239 240 245 253 249 251 228 183 186 188 181 188 191 189
337 334 331 329 326 325 324 323 323 320 318 317 315 313 311 310 308 304 295 280 287 269 228 258 229 200 246 283 277 303 303 242 255 287 203 223 226 231 249 259 281 294 295 282 259 248 252 265 263 208 263 311 355 350 356 334 310 229 204 240 232 224 241 255 262 235 217 229 210 212 228 233 226 225 231 229 232 243 248 249 246 215 185 189 188 187 192 191
337 335 333 330 327 327 325 324 323 321 320 319 319 321 324 327 315 293 267 178 163 165 182 198 176 178 247 281 293 303 249 218 252 238 182 199 204 215 238 253 286 311 326 318 271 232 226 240 207 224 275 308 180 80 53 265 263 259 219 240 261 248 242 233 261 254 217 217 222 226 231 229 227 221 216 210 218 232 243 246 246 239 200 184 189 187 189 190
338 338 336 333 330 328 326 325 323 322 322 321 324 328 340 14 40 110 109 115 114 114 183 295 118 143 262 267 278 301 274 277 274 212 196 201 202 215 229 236 323 348 352 346 280 196 158 334 138 202 300 215 197 156 186 222 221 228 229 224 291 260 251 242 248 256 225 223 229 232 235 231 231 238 230 216 209 221 237 243 244 244 224 186 179 187 190 186
339 340 337 334 332 329 326 326 324 324 325 327 334 344 14 54 62 98 110 114 108 96 220 226 167 158 296 252 251 295 310 322 311 206 201 208 207 209 208 211 342 15 26 22 306 198 145 319 124 176 249 221 209 202 211 227 224 235 247 227 250 254 250 248 251 254 242 236 234 234 239 233 226 231 238 240 223 210 229 239 239 242 239 212 183 183 190 189
340 339 336 334 333 330 327 326 325 327 330 331 337 353 33 37 30 79 106 145 201 229 244 218 195 233 284 284 299 312 318 320 313 208 192 194 181 178 183 182 56 43 89 110 281 265 151 177 218 211 223 220 219 227 239 260 291 303 303 280 258 257 255 251 248 248 245 248 243 235 239 239 228 226 227 233 242 229 225 232 234 234 240 234 208 189 185 193
340 338 335 334 333 330 328 326 326 330 334 331 333 350 26 346 344 312 307 254 238 237 248 243 215 234 258 266 289 305 315 311 303 276 212 193 154 149 184 164 129 44 228 171 199 307 66 195 230 227 223 224 233 256 268 281 292 291 287 282 268 257 259 260 256 253 243 243 250 240 234 235 230 227 226 222 229 238 224 217 226 226 232 238 229 213 188 185
339 336 334 334 333 330 328 328 330 333 339 342 343 343 281 325 20 348 329 291 268 235 238 248 231 241 253 256 269 279 292 281 283 288 225 186 157 168 187 151 153 201 211 150 75 311 308 242 242 242 234 224 237 250 259 267 271 268 263 266 265 261 272 273 266 267 256 242 247 245 237 235 230 223 224 218 218 230 227 211 213 215 220 229 232 229 198 159
338 336 335 334 331 329 327 329 330 335 345 343 328 310 310 343 2 358 3 311 295 248 225 239 232 244 255 258 259 248 254 257 265 285 224 176 168 187 176 162 175 191 178 151 171 222 254 250 244 242 227 222 234 239 243 254 259 252 251 251 253 257 265 266 262 267 269 263 251 247 249 246 234 224 220 217 215 224 229 226 219 207 208 216 219 227 210 166
336 336 336 332 330 328 327 329 329 335 341 330 314 321 7 4 359 5 22 250 296 290 233 221 214 228 246 257 238 204 220 232 224 275 229 177 164 176 172 177 182 191 187 184 192 208 238 251 252 226 221 219 231 237 231 236 251 250 248 246 252 256 252 259 276 281 285 280 256 241 253 249 225 223 222 217 217 223 225 229 231 222 214 215 212 221 218 184
336 336 334 332 330 326 327 334 340 340 336 325 333 360 10 356 356 14 33 283 288 279 242 207 191 214 243 252 202 173 195 225 220 255 227 182 171 175 188 188 178 196 198 198 206 222 241 243 237 246 246 233 233 239 226 218 242 253 245 245 253 261 260 264 272 275 286 283 258 223 234 254 230 221 223 217 220 225 224 225 229 229 226 218 212 214 208 193
335 334 333 332 328 327 333 339 339 339 333 331 3 356 349 343 351 17 44 354 310 272 246 150 178 238 278 266 177 159 158 229 248 250 236 198 179 184 214 209 175 205 196 194 212 229 235 206 191 228 242 240 239 240 223 205 230 252 238 240 251 259 264 263 262 260 249 266 274 245 229 260 263 223 214 211 220 223 223 227 227 227 227 219 214 209 191 193
333 332 332 330 326 327 328 312 330 336 323 310 345 349 347 337 340 10 56 58 16 315 278 245 184 294 299 209 115 126 190 269 294 257 222 200 193 195 217 223 202 207 176 167 230 220 196 181 192 225 234 240 240 239 224 197 222 252 236 235 249 253 255 255 256 258 257 275 289 279 253 246 253 230 208 204 216 223 220 222 224 222 225 224 221 208 190 192
333 333 333 330 326 313 284 290 315 321 312 323 335 345 344 333 333 10 81 82 18 7 285 268 316 344 281 311 37 175 239 272 300 273 216 153 166 182 216 229 220 218 185 186 236 216 155 185 205 217 227 235 233 232 227 208 232 254 244 238 249 256 257 257 256 255 263 285 282 273 265 240 240 241 214 203 211 220 219 219 219 219 222 226 225 210 192 193
334 337 338 332 326 280 265 276 283 305 323 329 338 335 329 330 351 47 109 86 348 317 207 245 334 313 308 354 352 269 281 257 206 268 309 107 64 82 190 269 295 255 218 208 239 241 172 199 201 197 212 226 228 229 222 224 245 259 254 245 250 263 267 263 259 254 253 256 256 259 256 245 252 236 207 209 212 216 217 216 216 214 217 223 225 213 193 190
338 344 344 333 320 188 250 266 278 324 330 323 328 320 317 331 45 70 39 50 310 286 292 32 2 335 358 2 316 278 268 256 231 264 315 65 11 40 60 7 22 342 286 250 254 258 254 268 224 204 218 222 225 225 216 226 247 278 280 255 245 253 261 267 265 250 237 237 246 252 250 247 268 239 207 214 216 212 210 213 214 213 216 222 224 211 192 186
341 348 345 327 299 216 230 273 317 346 340 329 325 316 322 352 77 79 59 185 259 300 331 332 302 337 358 337 303 289 266 262 240 220 241 199 2 29 49 14 48 175 281 277 271 280 285 274 254 223 222 215 220 224 218 227 238 270 282 261 248 243 244 262 257 225 218 235 238 244 249 247 249 244 228 223 213 204 202 205 207 209 218 224 220 198 187 184
344 349 341 318 277 236 230 277 350 4 342 332 332 335 38 47 39 53 266 287 299 309 332 292 284 324 320 308 291 281 272 271 219 204 217 198 202 208 170 184 166 185 241 245 253 277 260 248 249 251 234 208 210 222 218 231 236 226 233 243 240 230 218 234 236 209 216 237 237 236 240 245 246 247 241 229 209 200 203 203 201 205 217 222 207 182 183 182
344 344 332 317 281 254 249 280 333 350 318 325 342 33 78 67 31 308 292 306 248 269 314 294 298 305 300 299 286 270 257 255 236 206 205 198 212 229 211 191 172 179 217 222 218 242 273 271 251 246 245 214 209 214 210 212 218 217 214 212 218 211 204 217 212 205 219 232 239 235 228 246 259 253 230 221 204 195 196 198 200 205 215 218 196 177 182 181
346 336 312 301 283 273 268 272 306 318 307 329 9 58 53 57 295 292 301 274 254 296 318 307 308 301 287 270 253 239 32 265 249 193 187 181 203 233 229 198 186 189 211 216 199 199 234 272 234 219 221 200 207 211 211 209 209 217 212 211 229 228 223 221 198 208 223 227 234 231 221 223 237 231 217 211 202 196 192 195 203 207 214 214 190 175 181 180
345 328 299 286 280 280 266 239 244 289 301 359 51 61 47 50 262 294 293 262 299 311 299 298 305 296 282 259 245 171 128 261 295 277 214 193 200 213 211 203 195 190 191 205 205 180 214 250 222 204 207 201 212 213 205 206 217 220 208 210 230 232 236 250 232 214 200 203 233 226 215 225 241 243 213 200 200 198 193 198 203 208 215 209 179 173 180 179
344 336 307 275 278 277 233 200 188 232 273 52 55 24 61 230 251 275 307 301 305 297 299 301 286 267 295 301 266 209 163 234 308 306 240 210 222 215 209 212 191 187 190 194 202 166 203 245 198 179 224 229 228 230 208 198 207 204 198 216 236 240 243 252 254 229 163 183 243 233 223 246 260 266 219 194 195 199 201 204 201 206 212 197 172 175 180 177
346 342 320 280 285 274 231 204 180 196 77 73 62 301 240 248 260 241 257 303 291 276 294 306 253 225 297 308 283 286 222 225 274 283 229 213 239 220 214 226 190 191 195 189 205 195 198 253 210 189 233 233 231 236 215 198 201 193 191 211 227 241 245 246 260 252 160 181 245 224 215 230 236 264 228 191 190 200 207 206 197 201 202 184 175 179 178 177
342 334 314 298 291 196 215 201 176 164 57 72 302 290 242 233 253 246 225 259 288 280 273 288 234 182 260 280 289 281 259 254 235 215 222 222 237 206 200 217 203 199 197 187 199 224 192 251 261 221 233 247 241 232 207 196 202 205 215 213 187 214 238 237 249 254 187 190 245 216 208 220 218 234 222 194 191 201 208 203 193 197 192 181 180 179 179 178
348 344 325 324 188 162 175 180 165 114 46 61 282 281 241 243 263 265 234 192 244 266 260 264 234 212 246 261 283 282 264 261 261 244 222 201 234 242 207 202 211 203 194 187 189 182 161 225 281 210 183 200 244 209 191 198 201 206 226 235 154 181 234 222 227 249 216 200 233 212 202 224 232 213 197 194 195 199 199 193 198 198 190 187 181 176 179 177
8 16 325 79 140 152 160 162 134 65 61 237 232 247 276 278 277 272 235 186 199 228 230 250 245 246 260 251 268 282 264 257 263 261 213 192 233 268 241 205 211 203 189 185 179 150 124 199 255 250 113 105 279 211 197 203 200 203 216 217 202 222 244 242 237 245 222 192 205 199 205 244 254 209 183 193 203 199 181 180 198 199 193 192 180 172 177 177
6 24 271 144 141 146 141 129 49 99 199 276 238 247 286 265 270 283 240 190 195 214 216 247 262 270 280 272 274 283 271 260 261 248 247 226 213 273 254 207 196 190 185 185 182 171 146 171 238 273 316 277 243 235 218 204 197 199 203 205 209 219 225 254 267 251 217 199 195 180 215 261 256 212 180 194 207 200 183 184 195 199 195 192 181 173 175 177
16 25 290 182 173 172 93 76 293 180 198 283 249 251 285 269 272 292 264 209 209 221 215 239 258 258 260 265 275 276 263 267 266 240 253 257 223 239 255 246 232 200 183 183 175 164 140 130 225 258 264 247 239 242 226 183 166 183 204 206 212 227 216 204 247 266 253 234 213 178 228 267 262 229 204 200 197 191 196 196 191 196 195 186 176 172 174 175
36 288 320 348 209 198 56 355 288 350 249 264 268 273 289 287 280 292 288 264 231 217 212 231 247 244 234 242 266 271 260 257 247 232 258 277 241 239 256 271 264 213 165 144 145 146 119 113 238 262 270 270 266 250 218 147 118 150 219 215 216 235 241 240 256 283 302 279 248 174 221 260 281 274 250 236 198 168 191 200 179 176 183 173 166 168 172 171
326 253 317 0 262 185 67 299 289 330 302 300 315 306 298 276 273 298 300 285 239 204 223 244 240 230 231 238 238 248 270 274 239 238 257 266 261 265 270 280 283 245 189 163 150 163 154 142 234 274 299 305 295 255 198 149 149 183 210 218 219 233 251 271 279 272 272 262 226 151 196 245 276 322 308 280 228 156 186 205 174 155 155 157 160 166 167 162
331 247 276 342 347 65 104 225 307 325 319 332 324 309 306 287 268 291 293 283 242 200 215 249 234 228 250 253 238 247 258 253 246 266 286 270 275 280 281 293 301 306 139 133 129 130 170 159 205 244 190 140 145 178 182 175 194 198 212 217 219 231 239 251 275 264 256 263 231 163 189 252 296 349 340 303 249 178 196 208 178 150 146 152 158 164 163 156
1 2 313 328 348 26 343 291 11 352 325 336 321 301 310 308 293 290 294 290 247 209 230 256 240 243 267 265 260 263 248 232 237 265 311 293 280 290 303 306 296 139 118 122 128 125 158 183 213 226 210 188 203 220 214 201 239 240 244 236 227 237 239 245 269 256 256 297 291 230 181 255 317 336 338 309 272 204 205 199 167 137 137 152 161 162 160 157
36 19 1 344 324 354 355 340 25 359 315 322 311 286 299 308 311 320 316 298 267 249 247 249 237 253 268 270 278 276 262 244 247 269 296 282 274 292 302 312 319 132 125 124 134 137 135 219 220 216 227 238 243 259 269 272 265 249 249 253 247 253 258 265 270 256 261 321 305 284 242 126 295 294 294 295 287 237 215 196 163 143 143 153 158 157 157 153
34 115 59 38 310 328 345 322 329 323 309 302 269 271 303 322 329 333 324 293 291 309 314 276 278 284 278 272 262 266 293 294 270 292 301 285 303 311 309 349 61 106 116 109 109 124 143 253 231 204 255 271 260 263 262 254 250 236 222 223 237 252 262 275 275 266 263 254 254 279 287 160 244 278 281 280 275 243 217 200 160 145 145 149 153 153 151 150
25 321 341 35 327 280 278 290 298 300 302 305 294 300 328 334 331 329 323 311 313 330 335 312 309 316 311 298 248 225 304 324 302 284 288 292 313 320 311 355 39 69 85 69 357 95 126 254 256 244 290 292 269 247 231 229 240 232 217 216 223 246 268 278 275 271 277 289 283 288 286 254 234 260 273 279 275 242 173 151 134 138 143 145 151 151 149 151
35 310 329 342 296 279 266 280 295 294 301 317 328 330 336 334 329 328 324 315 314 324 329 319 314 319 321 316 288 222 245 271 269 260 268 296 304 316 320 347 2 346 356 82 257 277 125 254 297 347 314 288 288 294 252 222 225 219 219 220 211 286 298 279 276 293 325 311 315 334 287 286 264 247 265 290 321 50 100 127 136 147 150 146 148 151 152 154
3 328 339 323 291 306 302 302 320 312 308 347 355 335 332 328 324 324 315 295 303 318 320 318 316 317 320 318 309 281 273 274 262 254 250 255 263 280 297 300 336 333 327 335 293 310 104 315 340 25 344 283 311 331 317 279 94 352 293 299 30 335 297 285 285 289 261 255 288 42 307 287 282 263 280 345 35 54 69 108 125 138 153 151 152 154 154 154
357 344 347 321 286 323 335 325 332 328 315 347 341 324 318 312 313 322 320 298 310 317 312 312 318 322 325 321 316 314 313 295 268 259 251 244 251 255 261 271 283 292 291 305 321 319 100 51 356 20 330 286 304 317 311 42 58 347 275 230 185 232 269 292 295 274 230 204 159 130 203 251 279 289 39 38 41 52 49 63 103 112 132 149 155 158 157 156